Regional Weather Roundup
Issued by NWS State College, PA

Home | Current Version | Previous Version | Text Only | Print | Product List | Glossary On
Versions: 1 2 3 4 5 6 7 8 9 10 11 12 13 14 15 16 17 18 19 20 21 22 23 24 25 26 27 28 29 30 31 32 33 34 35 36 37 38 39 40 41 42 43 44 45 46 47 48 49 50
000
ASUS41 KCTP 221803
RWRCTP

REGIONAL WEATHER ROUNDUP
NATIONAL WEATHER SERVICE STATE COLLEGE PA
200 PM EDT TUE AUG 22 2017

Note: "fair" indicates few or no clouds below 12,000 feet with no
significant weather and/or obstructions to visibility.

* = STATION THAT DOES NOT REPORT PRECIPITATION /E.G. RAIN...SNOW...ETC/
    THUNDER OR FOG.

PAZ002>004-007>009-013>016-020>023-029>032-221900-
WESTERN PENNSYLVANIA

CITY           SKY/WX    TMP DP  RH WIND       PRES   REMARKS
ERIE           TSTM      71  68  90 S22G44    29.79S VSB 1/2
MEADVILLE      PTSUNNY   80  72  76 SW14G26   29.82F
FRANKLIN*      MOSUNNY   73  68  83 SW10      29.86F THUNDER
NEW CASTLE     FAIR      74  71  91 SW9       29.86F
BEAVER COUNTY  TSTM      68  66  94 SW7G35    29.89
BUTLER*        CLOUDY    80  71  74 SW15G24   29.90S THUNDER
PITTSBURGH INT TSTM      78  72  81 SW16      29.90S
PITTSBURGH     PTSUNNY   83  67  58 SW18G29   29.89F THUNDER
INDIANA*       PTSUNNY   84  70  61 SW15G23   29.92F
LATROBE        PTSUNNY   86  72  62 SW12G23   29.92F
WASHINGTON CO* PTSUNNY   84  72  65 SW15G23   29.91F
$$

PAZ004>006-010>012-017>019-024>028-033>037-041-042-045-046-049>053-221900-
CENTRAL PENNSYLVANIA

CITY           SKY/WX    TMP DP  RH WIND       PRES   REMARKS
BRADFORD       TSTM      75  68  78 W20G32    29.90R
DUBOIS         PTSUNNY   82  65  56 SW14G23   29.88F
CLEARFIELD     MOSUNNY   87  66  49 S15G23    29.89F
JOHNSTOWN      PTSUNNY   82  64  54 SW17G26   29.97F
ALTOONA        PTSUNNY   84  68  58 SW14G21   29.94F
STATE COLLEGE  MOSUNNY   84  72  65 SW17G28   29.90F
WILLIAMSPORT   SUNNY     89  71  55 S12       29.84F HX  95
SELINSGROVE    MOSUNNY   87  75  67 S9G16     29.89F HX  96
FT INDIANTOWN  MOSUNNY   87  74  65 SW12      29.91F HX  96
CAPITAL CITY   MOSUNNY   92  69  47 SW13      29.90F HX  97
HARRISBURG     MOSUNNY   90  72  55 VRB7      29.90F HX  97
YORK           MOSUNNY   89  70  53 SW8       29.93F
$$

PAZ038>040-043-044-047-048-054-055-060>062-067>071-221900-
EASTERN PENNSYLVANIA

CITY           SKY/WX    TMP DP  RH WIND       PRES   REMARKS
SCRANTON       MOSUNNY   88  67  49 SW10G22   29.90F
MOUNT POCONO   MOSUNNY   80  69  69 SW14      29.99F
ALLENTOWN      SUNNY     88  72  58 S10       29.92F
QUAKERTOWN*    PTCLDY    86  73  66 S10G16    29.94F
READING        MOSUNNY   89  76  65 S12       29.91F HX 100
LANCASTER      PTSUNNY   90  74  59 SW13      29.92F HX  99
COATESVILLE    DRIZZLE   86  75  70 S9G15     29.97F HX  95
POTTSTOWN      MOSUNNY   87  72  60 S8        29.95F
BLUE BELL      MOSUNNY   86  73  66 SW7       29.95F
DOYLESTOWN     MOSUNNY   86  73  65 S8        29.93F
WILLOW GROVE   NOT AVBL
NORTH PHILA    MOSUNNY   91  73  55 SW14G20   29.94F HX  99
PHILADELPHIA   MOSUNNY   89  74  60 SW14      29.94F HX  98
$$



USA.gov is the U.S. government's official web portal to all federal, state and local government web resources and services.